When you browse on this site, cookies collect data to enhance your experience and personalize the content and advertising you see.
Visit our Privacy Policy to learn more. By continuing to use the site, you agree to this use of cookies and data.
  • In Hungary
  • List of Countries
  • For 7 days
  • Water Temperature
  • Weather Map
  • News
  • Weather Widgets
  • user-avatar
    Login

    Hourly Weather Padinskiy

    Today, 19 October, Saturday

    Time Temperature Precipitation Wind Pressure Humidity
    00:00 +14°C° 0 mm 0 mps 738 mmHg 73%
    01:00 +14°C° 0 mm 0 mps 738 mmHg 74%
    02:00 +14°C° 0 mm 0 mps 738 mmHg 75%
    03:00 +13°C° 0 mm 0 mps 738 mmHg 78%
    04:00 +13°C° 0.1 mm 0 mps 739 mmHg 79%
    05:00 +13°C° 0.1 mm 0 mps 739 mmHg 79%
    06:00 +13°C° 0.1 mm 0 mps 739 mmHg 79%
    07:00 +15°C° 0 mm 1 mps 739 mmHg 72%
    08:00 +18°C° 0 mm 1 mps 740 mmHg 65%
    09:00 +19°C° 0 mm 1 mps 740 mmHg 59%
    10:00 +21°C° 0 mm 1 mps 740 mmHg 53%
    11:00 +23°C° 0 mm 2 mps 740 mmHg 47%
    12:00 +24°C° 0 mm 2 mps 740 mmHg 40%
    13:00 +24°C° 0 mm 2 mps 740 mmHg 40%
    14:00 +25°C° 0 mm 2 mps 740 mmHg 39%
    15:00 +25°C° 0 mm 2 mps 739 mmHg 38%
    16:00 +23°C° 0 mm 2 mps 740 mmHg 43%
    17:00 +21°C° 0 mm 2 mps 740 mmHg 48%
    18:00 +19°C° 0 mm 2 mps 740 mmHg 53%
    19:00 +19°C° 0 mm 2 mps 740 mmHg 56%
    20:00 +19°C° 0 mm 1 mps 740 mmHg 59%
    21:00 +18°C° 0 mm 1 mps 740 mmHg 62%
    22:00 +18°C° 0 mm 1 mps 740 mmHg 64%
    23:00 +16°C° 0 mm 1 mps 740 mmHg 66%

    Tomorrow, 20 October, Sunday

    Time Temperature Precipitation Wind Pressure Humidity
    00:00 +16°C° 0 mm 1 mps 740 mmHg 68%
    01:00 +15°C° 0 mm 1 mps 740 mmHg 69%
    02:00 +15°C° 0 mm 1 mps 740 mmHg 71%
    03:00 +15°C° 0 mm 1 mps 740 mmHg 72%
    04:00 +14°C° 0 mm 1 mps 741 mmHg 73%
    05:00 +14°C° 0 mm 1 mps 741 mmHg 75%
    06:00 +13°C° 0 mm 1 mps 741 mmHg 77%
    07:00 +15°C° 0 mm 2 mps 741 mmHg 73%
    08:00 +16°C° 0 mm 2 mps 741 mmHg 70%
    09:00 +17°C° 0 mm 3 mps 742 mmHg 67%
    10:00 +19°C° 0 mm 3 mps 742 mmHg 61%
    11:00 +20°C° 0 mm 4 mps 742 mmHg 56%
    12:00 +21°C° 0 mm 4 mps 741 mmHg 51%
    13:00 +21°C° 0 mm 5 mps 741 mmHg 49%
    14:00 +22°C° 0 mm 5 mps 741 mmHg 48%
    15:00 +22°C° 0 mm 5 mps 741 mmHg 47%
    16:00 +20°C° 0 mm 5 mps 741 mmHg 50%
    17:00 +19°C° 0 mm 4 mps 742 mmHg 53%
    18:00 +18°C° 0 mm 4 mps 742 mmHg 57%
    19:00 +17°C° 0 mm 4 mps 742 mmHg 58%
    20:00 +15°C° 0 mm 4 mps 742 mmHg 58%
    21:00 +15°C° 0 mm 4 mps 742 mmHg 59%
    22:00 +14°C° 0 mm 3 mps 742 mmHg 61%
    23:00 +13°C° 0 mm 3 mps 742 mmHg 64%

    Day after tomorrow, 21 October, Monday

    Time Temperature Precipitation Wind Pressure Humidity
    00:00 +13°C° 0 mm 3 mps 742 mmHg 66%
    01:00 +12°C° 0 mm 3 mps 742 mmHg 68%
    02:00 +11°C° 0 mm 3 mps 742 mmHg 71%
    03:00 +11°C° 0 mm 3 mps 742 mmHg 73%
    04:00 +10°C° 0 mm 3 mps 742 mmHg 75%
    05:00 +10°C° 0 mm 3 mps 742 mmHg 78%
    06:00 +9°C° 0 mm 3 mps 742 mmHg 80%
    07:00 +11°C° 0 mm 3 mps 742 mmHg 75%
    08:00 +12°C° 0 mm 4 mps 742 mmHg 71%
    09:00 +13°C° 0 mm 4 mps 743 mmHg 67%
    10:00 +15°C° 0 mm 5 mps 742 mmHg 61%
    11:00 +16°C° 0 mm 5 mps 742 mmHg 54%
    12:00 +19°C° 0 mm 6 mps 742 mmHg 48%
    13:00 +19°C° 0 mm 6 mps 742 mmHg 48%
    14:00 +19°C° 0 mm 6 mps 742 mmHg 49%
    15:00 +19°C° 0 mm 6 mps 742 mmHg 49%
    16:00 +17°C° 0 mm 6 mps 742 mmHg 54%
    17:00 +16°C° 0 mm 5 mps 742 mmHg 60%
    18:00 +15°C° 0 mm 4 mps 742 mmHg 65%
    19:00 +14°C° 0 mm 4 mps 742 mmHg 68%
    20:00 +13°C° 0 mm 4 mps 742 mmHg 70%
    21:00 +13°C° 0 mm 4 mps 742 mmHg 73%
    22:00 +12°C° 0 mm 4 mps 742 mmHg 77%
    23:00 +11°C° 0 mm 3 mps 741 mmHg 80%

    22 October, Tuesday

    Time Temperature Precipitation Wind Pressure Humidity
    00:00 +11°C° 0 mm 3 mps 741 mmHg 84%
    01:00 +10°C° 0 mm 3 mps 741 mmHg 87%
    02:00 +10°C° 0 mm 3 mps 741 mmHg 90%
    03:00 +9°C° 0 mm 2 mps 741 mmHg 93%
    04:00 +9°C° 0 mm 2 mps 741 mmHg 94%
    05:00 +9°C° 0 mm 2 mps 741 mmHg 95%
    06:00 +8°C° 0 mm 2 mps 741 mmHg 96%
    07:00 +9°C° 0 mm 2 mps 742 mmHg 91%
    08:00 +11°C° 0 mm 3 mps 742 mmHg 86%
    09:00 +12°C° 0 mm 3 mps 742 mmHg 81%
    10:00 +13°C° 0 mm 3 mps 742 mmHg 73%
    11:00 +15°C° 0 mm 4 mps 742 mmHg 65%
    12:00 +17°C° 0 mm 4 mps 741 mmHg 56%
    13:00 +18°C° 0 mm 4 mps 741 mmHg 54%
    14:00 +18°C° 0 mm 4 mps 741 mmHg 52%
    15:00 +19°C° 0 mm 4 mps 741 mmHg 49%
    16:00 +17°C° 0 mm 4 mps 741 mmHg 54%
    17:00 +16°C° 0 mm 3 mps 742 mmHg 59%
    18:00 +14°C° 0 mm 3 mps 742 mmHg 64%
    19:00 +13°C° 0 mm 3 mps 742 mmHg 67%
    20:00 +13°C° 0 mm 2 mps 742 mmHg 70%
    21:00 +13°C° 0 mm 2 mps 742 mmHg 72%
    22:00 +12°C° 0 mm 2 mps 742 mmHg 74%
    23:00 +12°C° 0 mm 2 mps 741 mmHg 75%

    23 October, Wednesday

    Time Temperature Precipitation Wind Pressure Humidity
    00:00 +12°C° 0 mm 2 mps 741 mmHg 77%
    01:00 +10°C° 0 mm 2 mps 741 mmHg 80%
    02:00 +10°C° 0 mm 2 mps 741 mmHg 84%
    03:00 +9°C° 0 mm 2 mps 741 mmHg 88%
    04:00 +9°C° 0 mm 2 mps 742 mmHg 89%
    05:00 +10°C° 0 mm 1 mps 742 mmHg 90%
    06:00 +10°C° 0 mm 1 mps 742 mmHg 91%
    07:00 +10°C° 0 mm 2 mps 742 mmHg 85%
    08:00 +13°C° 0 mm 2 mps 742 mmHg 79%
    09:00 +13°C° 0 mm 3 mps 742 mmHg 74%
    10:00 +16°C° 0 mm 3 mps 742 mmHg 66%
    11:00 +17°C° 0 mm 4 mps 742 mmHg 59%
    12:00 +19°C° 0 mm 4 mps 742 mmHg 51%
    13:00 +19°C° 0 mm 4 mps 742 mmHg 48%
    14:00 +19°C° 0 mm 4 mps 742 mmHg 46%
    15:00 +20°C° 0 mm 4 mps 742 mmHg 44%
    16:00 +18°C° 0 mm 4 mps 742 mmHg 47%
    17:00 +17°C° 0 mm 3 mps 742 mmHg 51%
    18:00 +14°C° 0 mm 3 mps 742 mmHg 54%
    19:00 +13°C° 0 mm 3 mps 742 mmHg 56%
    20:00 +13°C° 0 mm 3 mps 742 mmHg 57%
    21:00 +12°C° 0 mm 3 mps 742 mmHg 59%
    22:00 +13°C° 0 mm 2 mps 742 mmHg 61%
    23:00 +12°C° 0 mm 2 mps 742 mmHg 62%

    24 October, Thursday

    Time Temperature Precipitation Wind Pressure Humidity
    00:00 +12°C° 0 mm 2 mps 741 mmHg 64%
    01:00 +10°C° 0 mm 2 mps 741 mmHg 67%
    02:00 +10°C° 0 mm 2 mps 741 mmHg 70%
    03:00 +9°C° 0 mm 2 mps 741 mmHg 73%
    04:00 +9°C° 0 mm 2 mps 741 mmHg 75%
    05:00 +9°C° 0 mm 2 mps 741 mmHg 78%
    06:00 +9°C° 0 mm 2 mps 741 mmHg 80%
    07:00 +10°C° 0 mm 2 mps 741 mmHg 74%
    08:00 +11°C° 0 mm 3 mps 741 mmHg 67%
    09:00 +13°C° 0 mm 3 mps 741 mmHg 61%
    10:00 +14°C° 0 mm 4 mps 741 mmHg 55%
    11:00 +17°C° 0 mm 4 mps 741 mmHg 48%
    12:00 +17°C° 0 mm 5 mps 741 mmHg 42%
    13:00 +17°C° 0 mm 5 mps 741 mmHg 42%
    14:00 +19°C° 0 mm 5 mps 741 mmHg 41%
    15:00 +19°C° 0 mm 5 mps 741 mmHg 41%
    16:00 +16°C° 0 mm 5 mps 741 mmHg 46%
    17:00 +15°C° 0 mm 4 mps 741 mmHg 52%
    18:00 +14°C° 0 mm 3 mps 741 mmHg 58%
    19:00 +13°C° 0 mm 3 mps 741 mmHg 61%
    20:00 +12°C° 0 mm 3 mps 741 mmHg 64%
    21:00 +12°C° 0 mm 3 mps 741 mmHg 68%
    22:00 +11°C° 0 mm 3 mps 741 mmHg 71%
    23:00 +11°C° 0 mm 3 mps 740 mmHg 75%
    Show more